Location: Newark
(40.9833°N, 0.0333°W)
Time: 01:32:11
(UTC+00:00)

Hubble Space Telescope - Visible Passes

Search period start: 25 March 2019 00:00
Search period end: 04 April 2019 00:00
Orbit: 537 x 540 km, 28.5° (Epoch: 24 March)

Date Brightness Start Highest point End Pass type
(mag) Time Alt. Az. Time Alt. Az. Time Alt. Az.
25 Mar 3.3 20:07:32 10° SSW 20:07:45 11° SSW 20:07:45 11° SSW visible
26 Mar 3.0 19:56:40 10° SSW 19:58:03 13° S 19:58:03 13° S visible
27 Mar 2.8 19:45:53 10° SSW 19:48:04 14° S 19:48:18 14° S visible
28 Mar 2.8 19:35:12 10° SSW 19:37:28 14° S 19:38:30 13° SSE visible
29 Mar 2.9 19:24:35 10° SW 19:26:50 14° S 19:28:40 11° SSE visible
30 Mar 3.0 19:14:02 10° SW 19:16:14 14° S 19:18:26 10° SSE visible
31 Mar 3.1 19:03:34 10° SW 19:05:37 13° S 19:07:41 10° SSE visible
01 Apr 3.1 18:53:10 10° SW 18:55:01 13° S 18:56:50 10° SSE visible
